Weather History for KDOV - August, 2014

Change the Weather History Date:

Tuesday, August 12, 2014

  Actual Average Record
Temperature  
Mean Temperature 76 °F -  
Max Temperature 80 °F 86 °F 98 °F (1949)
Min Temperature 71 °F 65 °F 49 °F (1974)
Cooling Degree Days 10    
Growing Degree Days 26 (Base 50)    
Moisture  
Dew Point 73 °F    
Average Humidity 97    
Maximum Humidity 100    
Minimum Humidity 74    
Precipitation  
Precipitation 1.29 in - - ()
Sea Level Pressure  
Sea Level Pressure 29.86 in    
Wind  
Wind Speed 9 mph (ESE)    
Max Wind Speed 18 mph    
Max Gust Speed 26 mph    
Visibility 6 miles    
Events Rain , Thunderstorm    
Averages and records for this station are not official NWS values.
T = Trace of Precipitation, MM = Missing Value Source: NWS Daily Summary

Daily Weather History Graph

Daily Weather History Graph

Search for Another Location

Airport or City:

Trip Planner

Search our weather history database for the weather conditions in past years. The results will help you decide how hot, cold, wet, or windy it might be!

Date:

Astronomy

Aug. 12, 2014 Rise Set
Actual Time 6:12 AM EDT 8:00 PM EDT
Civil Twilight 5:43 AM EDT 8:29 PM EDT
Nautical Twilight 5:08 AM EDT 9:04 PM EDT
Astronomical Twilight 4:30 AM EDT 9:41 PM EDT
Moon 9:08 PM EDT (8/12) 8:25 AM EDT (8/12)
Length of Visible Light 14h 46m
Length of Day
13h 48m
Waning Gibbous, 95% of the Moon is Illuminated
Aug 12
Waning Gibbous
Aug 17
Last Quarter
Aug 25
New
Sep 2
First Quarter
Sep 8
Full

Hourly Weather History & Observations

Time (EDT) Temp. Heat Index Dew Point Humidity Pressure Visibility Wind Dir Wind Speed Gust Speed Precip Events Conditions
12:58 AM 74.1 °F - 69.4 °F 85% 30.02 in 10.0 mi SE 8.1 mph - N/A   Clear
1:43 AM 75.2 °F - 71.6 °F 89% 30.01 in 10.0 mi ESE 5.8 mph - N/A   Mostly Cloudy
1:53 AM 75.2 °F - 71.6 °F 89% 30.01 in 10.0 mi ESE 6.9 mph - N/A   Scattered Clouds
1:58 AM 74.5 °F - 71.4 °F 90% 30.01 in 10.0 mi ESE 8.1 mph - N/A   Scattered Clouds
2:58 AM 74.1 °F - 72.0 °F 93% 30.00 in 10.0 mi SE 8.1 mph - N/A   Mostly Cloudy
3:58 AM 73.9 °F - 72.0 °F 93% 29.99 in 10.0 mi SE 6.9 mph - 0.00 in Rain Light Rain
4:04 AM 73.4 °F - 71.6 °F 94% 29.98 in 10.0 mi SE 8.1 mph - N/A   Partly Cloudy
4:58 AM 73.4 °F - 73.0 °F 99% 29.98 in 10.0 mi SE 5.8 mph - 0.00 in   Partly Cloudy
5:23 AM 73.4 °F - 73.4 °F 100% 29.97 in 10.0 mi SE 5.8 mph - N/A Rain Light Rain
5:39 AM 73.4 °F - 73.4 °F 100% 29.97 in 10.0 mi ESE 6.9 mph - N/A   Mostly Cloudy
5:58 AM 73.8 °F - 73.8 °F 100% 29.98 in 10.0 mi ESE 5.8 mph - 0.00 in   Mostly Cloudy
6:40 AM 73.4 °F - 73.4 °F 100% 29.96 in 10.0 mi ESE 6.9 mph - N/A Rain Light Rain
6:51 AM 73.4 °F - 73.4 °F 100% 29.96 in 10.0 mi ESE 6.9 mph - N/A   Partly Cloudy
6:58 AM 74.1 °F - 74.1 °F 100% 29.97 in 10.0 mi ESE 5.8 mph - 0.00 in   Partly Cloudy
7:53 AM 75.2 °F - 73.4 °F 94% 29.97 in 10.0 mi ESE 5.8 mph - N/A   Overcast
7:58 AM 75.2 °F - 73.8 °F 95% 29.98 in 10.0 mi ESE 3.5 mph - N/A   Overcast
8:03 AM 75.2 °F - 73.4 °F 94% 29.97 in 10.0 mi ESE 5.8 mph - N/A   Overcast
8:58 AM 76.5 °F - 72.9 °F 89% 29.97 in 10.0 mi SE 8.1 mph - N/A   Mostly Cloudy
8:59 AM 77.0 °F - 73.4 °F 89% 29.96 in 10.0 mi SE 9.2 mph - N/A   Light Drizzle
9:08 AM 77.0 °F - 73.4 °F 89% 29.95 in 10.0 mi ESE 10.4 mph - N/A   Scattered Clouds
9:17 AM 77.0 °F - 73.4 °F 89% 29.95 in 10.0 mi ESE 10.4 mph 17.3 mph N/A   Light Drizzle
9:26 AM 77.0 °F - 73.4 °F 89% 29.95 in 10.0 mi SE 8.1 mph 17.3 mph N/A   Scattered Clouds
9:58 AM 77.9 °F - 72.5 °F 83% 29.96 in 10.0 mi SE 10.4 mph - 0.00 in   Mostly Cloudy
10:58 AM 79.3 °F - 71.8 °F 78% 29.95 in 10.0 mi SE 12.7 mph - N/A   Mostly Cloudy
11:18 AM 80.6 °F 84.6 °F 71.6 °F 74% 29.94 in 10.0 mi ESE 10.4 mph 18.4 mph N/A   Mostly Cloudy
11:58 AM 78.4 °F - 71.8 °F 80% 29.95 in 10.0 mi ESE 9.2 mph 18.4 mph N/A   Mostly Cloudy
12:11 PM 78.8 °F - 71.6 °F 78% 29.94 in 10.0 mi SE 11.5 mph 19.6 mph N/A Rain Light Rain
1:51 PM 75.2 °F - 73.4 °F 94% 29.90 in 10.0 mi ESE 9.2 mph 20.7 mph N/A   Mostly Cloudy
1:58 PM 75.6 °F - 74.1 °F 95% 29.91 in 10.0 mi ESE 10.4 mph - 0.01 in   Mostly Cloudy
2:03 PM 75.2 °F - 73.4 °F 94% 29.90 in 10.0 mi ESE 11.5 mph 17.3 mph N/A   Mostly Cloudy
2:08 PM 75.2 °F - 73.4 °F 94% 29.90 in 10.0 mi ESE 12.7 mph 21.9 mph N/A   Mostly Cloudy
2:09 PM 75.2 °F - 73.4 °F 94% 29.90 in 10.0 mi ESE 11.5 mph 21.9 mph N/A Rain Light Rain
2:58 PM 74.3 °F - 74.3 °F 100% 29.89 in 4.0 mi ESE 12.7 mph 20.7 mph 0.06 in Rain Light Rain
3:08 PM 73.4 °F - 73.4 °F 100% 29.87 in 2.5 mi ESE 13.8 mph 26.5 mph N/A Rain Rain
3:13 PM 73.4 °F - 73.4 °F 100% 29.88 in 3.0 mi ESE 11.5 mph 26.5 mph N/A Rain Light Rain
3:58 PM 74.1 °F - 74.1 °F 100% 29.88 in 6.0 mi ESE 12.7 mph - 0.10 in Rain Light Rain
4:12 PM 73.4 °F - 73.4 °F 100% 29.86 in 4.0 mi East 9.2 mph 18.4 mph N/A   Overcast
4:15 PM 73.4 °F - 73.4 °F 100% 29.86 in 4.0 mi East 12.7 mph 18.4 mph N/A Rain Light Rain
4:55 PM 75.2 °F - 75.2 °F 100% 29.85 in 6.0 mi East 12.7 mph 19.6 mph N/A Rain Light Rain
4:58 PM 74.5 °F - 74.5 °F 100% 29.85 in 7.0 mi East 12.7 mph 19.6 mph 0.15 in Rain Light Rain
5:23 PM 75.2 °F - 75.2 °F 100% 29.84 in 3.0 mi East 12.7 mph 21.9 mph N/A   Overcast
5:31 PM 75.2 °F - 75.2 °F 100% 29.83 in 4.0 mi East 11.5 mph 21.9 mph N/A Rain Light Rain
5:39 PM - - - N/A% - - East 12.7 mph 21.9 mph N/A   Unknown
5:43 PM 73.4 °F - 73.4 °F 100% 29.83 in 5.0 mi East 10.4 mph 21.9 mph N/A Rain Light Rain
5:50 PM 73.4 °F - 73.4 °F 100% 29.84 in 5.0 mi East 11.5 mph 21.9 mph N/A Rain Light Rain
5:58 PM 74.3 °F - 74.3 °F 100% 29.84 in 4.0 mi East 15.0 mph 23.0 mph 0.07 in Rain Light Rain
6:03 PM 73.4 °F - 73.4 °F 100% 29.83 in 2.5 mi East 10.4 mph 23.0 mph N/A Rain Light Rain
6:08 PM 73.4 °F - 73.4 °F 100% 29.84 in 3.0 mi East 12.7 mph 23.0 mph N/A Rain Light Rain
6:13 PM 73.4 °F - 73.4 °F 100% 29.84 in 1.2 mi ESE 9.2 mph 21.9 mph N/A Rain Heavy Rain
6:18 PM 73.4 °F - 73.4 °F 100% 29.84 in 1.0 mi East 8.1 mph 18.4 mph N/A Rain Light Rain
6:23 PM 73.4 °F - 73.4 °F 100% 29.84 in 1.8 mi ESE 12.7 mph 20.7 mph N/A Rain Light Rain
6:28 PM 73.4 °F - 73.4 °F 100% 29.84 in 3.0 mi ESE 13.8 mph 24.2 mph N/A Rain Light Rain
6:33 PM 73.4 °F - 73.4 °F 100% 29.83 in 2.0 mi ESE 18.4 mph 25.3 mph N/A Rain Light Rain
6:38 PM 73.4 °F - 73.4 °F 100% 29.83 in 1.8 mi ESE 11.5 mph 25.3 mph N/A Rain Light Rain
6:43 PM 71.6 °F - 71.6 °F 100% 29.84 in 2.5 mi ESE 12.7 mph 25.3 mph N/A Rain Light Rain
6:48 PM 71.6 °F - 71.6 °F 100% 29.84 in 4.0 mi East 12.7 mph 21.9 mph N/A Rain Light Rain
6:53 PM 71.6 °F - 71.6 °F 100% 29.83 in 3.0 mi ESE 15.0 mph 24.2 mph N/A Rain Light Rain
6:55 PM 71.6 °F - 71.6 °F 100% 29.83 in 3.0 mi East 11.5 mph 24.2 mph N/A Rain , Thunderstorm Light Thunderstorms and Rain
6:58 PM 71.6 °F - 71.6 °F 100% 29.84 in 3.0 mi East 13.8 mph 24.2 mph 0.23 in Rain , Thunderstorm Light Thunderstorms and Rain
7:04 PM 71.6 °F - 71.6 °F 100% 29.83 in 7.0 mi East 11.5 mph 20.7 mph N/A Thunderstorm Thunderstorm
7:06 PM 71.6 °F - 71.6 °F 100% 29.83 in 9.0 mi East 11.5 mph 20.7 mph N/A Rain , Thunderstorm Light Thunderstorms and Rain
7:10 PM 71.6 °F - 71.6 °F 100% 29.83 in 5.0 mi East 13.8 mph 19.6 mph N/A Rain Light Rain
7:13 PM 71.6 °F - 71.6 °F 100% 29.83 in 2.5 mi East 16.1 mph 24.2 mph N/A Rain , Thunderstorm Thunderstorms and Rain
7:18 PM 71.6 °F - 71.6 °F 100% 29.82 in 1.0 mi East 15.0 mph 24.2 mph N/A Rain , Thunderstorm Thunderstorms and Rain
7:33 PM 71.6 °F - 71.6 °F 100% 29.81 in 0.8 mi ENE 12.7 mph 25.3 mph N/A Rain Rain
7:48 PM 71.6 °F - 71.6 °F 100% 29.79 in 1.5 mi NE 10.4 mph 17.3 mph N/A Rain , Thunderstorm Rain
7:53 PM 73.4 °F - 73.4 °F 100% 29.79 in 2.0 mi East 12.7 mph 21.9 mph N/A Rain , Thunderstorm Light Rain
7:58 PM 73.4 °F - 73.4 °F 100% 29.80 in 3.0 mi East 12.7 mph 21.9 mph 0.41 in Rain Light Rain
8:03 PM 73.4 °F - 73.4 °F 100% 29.79 in 5.0 mi East 12.7 mph 21.9 mph N/A   Overcast
8:06 PM 73.4 °F - 73.4 °F 100% 29.78 in 5.0 mi East 13.8 mph 21.9 mph N/A Rain Light Rain
8:21 PM 73.4 °F - 73.4 °F 100% 29.78 in 5.0 mi East 11.5 mph 23.0 mph N/A Rain Light Rain
8:31 PM 73.4 °F - 73.4 °F 100% 29.79 in 3.0 mi East 13.8 mph 24.2 mph N/A Rain Light Rain
8:36 PM 73.4 °F - 73.4 °F 100% 29.79 in 4.0 mi East 12.7 mph 24.2 mph N/A Rain Light Rain
8:37 PM 73.4 °F - 73.4 °F 100% 29.79 in 4.0 mi East 15.0 mph 24.2 mph N/A   Overcast
8:38 PM 73.4 °F - 73.4 °F 100% 29.79 in 4.0 mi East 13.8 mph 24.2 mph N/A Rain Light Rain
8:48 PM 73.4 °F - 73.4 °F 100% 29.79 in 4.0 mi East 15.0 mph 23.0 mph N/A Rain Light Rain
8:58 PM 73.4 °F - 73.4 °F 100% 29.80 in 4.0 mi ESE 12.7 mph 24.2 mph 0.10 in Rain Light Rain
9:03 PM 73.4 °F - 73.4 °F 100% 29.79 in 3.0 mi East 11.5 mph 21.9 mph N/A Rain Light Rain
9:13 PM 73.4 °F - 73.4 °F 100% 29.79 in 4.0 mi East 10.4 mph 20.7 mph N/A Rain Light Rain
9:38 PM 73.4 °F - 73.4 °F 100% 29.79 in 4.0 mi ESE 9.2 mph 17.3 mph N/A Rain Light Rain
9:53 PM 73.4 °F - 73.4 °F 100% 29.78 in 2.0 mi East 9.2 mph - N/A Rain Light Rain
9:58 PM 74.1 °F - 74.1 °F 100% 29.79 in 2.5 mi East 8.1 mph - 0.15 in Rain Light Rain
10:03 PM 73.4 °F - 73.4 °F 100% 29.78 in 4.0 mi Variable 4.6 mph - N/A Rain Light Rain
10:08 PM 73.4 °F - 73.4 °F 100% 29.78 in 4.0 mi Variable 1.2 mph - N/A Rain Light Rain
10:15 PM 75.2 °F - 75.2 °F 100% 29.78 in 9.0 mi NE 1.2 mph - N/A   Overcast
10:40 PM 75.2 °F - 75.2 °F 100% 29.77 in 10.0 mi SSW 8.1 mph - N/A   Overcast
10:45 PM 75.2 °F - 75.2 °F 100% 29.77 in 10.0 mi SSW 6.9 mph - N/A   Mostly Cloudy
10:50 PM 75.2 °F - 75.2 °F 100% 29.76 in 10.0 mi SSW 6.9 mph - N/A   Mostly Cloudy
10:55 PM 75.2 °F - 75.2 °F 100% 29.76 in 10.0 mi South 6.9 mph - N/A   Scattered Clouds
10:58 PM 74.5 °F - 74.5 °F 100% 29.77 in 10.0 mi SSW 4.6 mph - 0.01 in   Partly Cloudy
11:08 PM 75.2 °F - 75.2 °F 100% 29.76 in 10.0 mi Calm Calm - N/A   Mostly Cloudy
11:18 PM 73.4 °F - 73.4 °F 100% 29.76 in 10.0 mi NNE 3.5 mph - N/A   Mostly Cloudy
11:38 PM 73.4 °F - 73.4 °F 100% 29.76 in 10.0 mi North 2.3 mph - N/A   Overcast
11:58 PM 73.9 °F - 73.9 °F 100% 29.77 in 10.0 mi North 2.3 mph - N/A   Overcast
11:59 PM 73.4 °F - 73.4 °F 100% 29.76 in 10.0 mi NNE 2.3 mph - N/A   Light Drizzle